Location: Bonningues
(50.7927°N, 2.0150°E)
Time: 17:20:07
(UTC+00:00)

Meteor 1-27 Rocket - Pass Details

Date: 08 August 2020
Orbit: 830 x 909 km, 81.3° (Epoch: 25 September)

Event Time Altitude Azimuth Distance (km) Brightness Sun altitude
Rises 20:21:49 0° 347° (NNW) 3,522 7.8 -8.4°
Reaches altitude 10° 20:24:17 10° 349° (N) 2,586 7.0 -8.8°
Maximum altitude 20:30:13 82° 78° (ENE) 923 3.9 -9.5°
Drops below altitude 10° 20:36:09 10° 166° (SSE) 2,590 5.7 -10.2°
Enters shadow 20:36:55 - 166° (SSE) 2,881 6.0 -10.3°
